GW0115 Weather Reports


time (UTC)temp
C
wind
direction
speed
KPH
gust
KPH
rain 1hr
cm
rain 24hr
cm
rain mn
cm
humidity
%
barometer
mb
20260905071602 15 0 0.0 0.0 0.00 0.00 0.00 91 1010.6
20260905070107 15 0 0.0 0.0 0.00 0.00 0.00 90 1010.7
20260905064610 15 0 0.0 0.0 0.00 0.00 0.00 89 1010.8
20260905063101 16 0 0.0 0.0 0.00 0.00 0.00 88 1010.7
20260905061603 16 0 0.0 0.0 0.00 0.00 0.00 88 1010.8
20260905060103 16 0 0.0 0.0 0.00 0.00 0.00 87 1010.7
20260905054559 17 0 0.0 0.0 0.00 0.00 0.00 85 1010.7
20260905053059 16 0 0.0 0.0 0.00 0.00 0.00 87 1010.8
20260905051602 17 0 0.0 0.0 0.00 0.00 0.00 86 1010.8
20260905050058 17 0 0.0 0.0 0.00 0.00 0.00 87 1010.9
20260905044601 16 0 0.0 0.0 0.00 0.00 0.00 87 1010.9
20260905043105 17 0 0.0 0.0 0.00 0.00 0.00 86 1010.8
20260905041558 17 0 0.0 0.0 0.00 0.00 0.00 86 1011.2
20260905040056 17 0 0.0 0.0 0.00 0.00 0.00 85 1011.2
20260905034550 18 0 0.0 0.0 0.00 0.00 0.00 86 1011.3
20260905033058 18 0 0.0 0.0 0.00 0.00 0.00 86 1011.4
20260905031556 18 0 0.0 0.0 0.00 0.00 0.00 86 1011.2
20260905030119 18 0 0.0 0.0 0.00 0.00 0.00 86 1010.8
20260905024604 18 0 0.0 0.0 0.00 0.00 0.00 86 1011.2
20260905023056 18 0 0.0 0.0 0.00 0.00 0.00 86 1011.1
20260905021556 18 0 0.0 0.0 0.00 0.00 0.00 86 1011.2
20260905020051 18 0 0.0 0.0 0.00 0.00 0.00 85 1011.3
20260905014604 18 0 0.0 0.0 0.00 0.00 0.00 84 1011.2
20260905013056 19 0 0.0 0.0 0.00 0.00 0.00 83 1011.1
20260905011556 20 0 0.0 0.0 0.00 0.00 0.00 84 1011.3
20260905004606 20 0 0.0 0.0 0.00 0.00 0.00 82 1011.2
20260905003055 20 0 0.0 0.0 0.00 0.00 0.00 82 1011.2
20260905001611 20 0 0.0 0.0 0.00 0.00 0.00 82 1011.1
20260905000105 20 0 0.0 0.0 0.00 0.00 0.00 80 1010.9
20260904234606 20 0 0.0 0.0 0.00 0.00 0.00 79 1010.7
20260904233056 21 0 0.0 0.0 0.00 0.00 0.00 78 1010.5
20260904231604 21 0 0.0 0.0 0.00 0.00 0.00 75 1010.3
20260904230059 21 0 0.0 0.0 0.00 0.00 0.00 77 1010.3
20260904224556 21 0 0.0 0.0 0.00 0.00 0.00 78 1010.5
20260904223100 22 0 0.0 0.0 0.00 0.00 0.00 82 1010.4
20260904221600 22 0 0.0 0.0 0.00 0.00 0.00 80 1010.2
20260904220111 22 0 0.0 0.0 0.00 0.00 0.00 77 1010.4
20260904214553 22 0 0.0 0.0 0.00 0.00 0.00 76 1010.1
20260904213054 23 0 0.0 0.0 0.00 0.00 0.00 76 1010.3
20260904211603 23 0 0.0 0.0 0.00 0.00 0.00 76 1010.3
20260904210100 23 0 0.0 0.0 0.00 0.00 0.00 73 1010.5
20260904204555 23 0 0.0 0.0 0.00 0.00 0.00 75 1010.3
20260904203059 24 0 0.0 0.0 0.00 0.00 0.00 74 1010.3
20260904201556 24 0 0.0 0.0 0.00 0.00 0.00 70 1010.4
20260904200121 24 0 0.0 1.6 0.00 0.00 0.00 66 1010.5
20260904194636 24 0 0.0 4.8 0.00 0.00 0.00 69 1010.4
20260904193057 24 0 0.0 4.8 0.00 0.00 0.00 67 1010.3
20260904191610 24 0 0.0 1.6 0.00 0.00 0.00 71 1010.4
20260904190057 25 0 0.0 4.8 0.00 0.00 0.00 69 1010.7
20260904184610 25 0 0.0 9.7 0.00 0.00 0.00 69 1010.8
20260904183056 26 83 0.0 6.4 0.00 0.00 0.00 65 1010.7
20260904181600 25 0 0.0 9.7 0.00 0.00 0.00 67 1010.5
20260904180101 24 0 0.0 0.0 0.00 0.00 0.00 70 1010.7
20260904174558 24 0 0.0 9.7 0.00 0.00 0.00 70 1010.7
20260904173103 24 0 0.0 0.0 0.00 0.00 0.00 71 1010.9
20260904171558 24 0 0.0 0.0 0.00 0.00 0.00 72 1010.9
20260904170058 25 0 0.0 8.0 0.00 0.00 0.00 68 1010.8
20260904164559 25 0 0.0 1.6 0.00 0.00 0.00 69 1010.9
20260904163051 24 0 0.0 0.0 0.00 0.00 0.00 74 1011.0
20260904161556 24 0 0.0 0.0 0.00 0.00 0.00 68 1011.1
20260904160056 23 0 0.0 0.0 0.00 0.00 0.00 74 1011.2
20260904154608 23 0 0.0 0.0 0.00 0.00 0.00 77 1011.4
20260904153053 23 0 0.0 0.0 0.00 0.00 0.00 75 1011.4
20260904151609 23 0 0.0 0.0 0.00 0.00 0.00 71 1011.5
20260904150054 23 0 0.0 0.0 0.00 0.00 0.00 71 1011.7
20260904144554 23 0 0.0 0.0 0.00 0.00 0.00 70 1011.7
20260904143102 23 0 0.0 1.6 0.00 0.00 0.00 70 1011.7
20260904141622 23 0 0.0 1.6 0.00 0.00 0.00 72 1011.6
20260904140106 23 0 0.0 0.0 0.00 0.00 0.00 74 1011.6
20260904134558 23 0 0.0 0.0 0.00 0.00 0.00 72 1011.5
20260904133114 22 0 0.0 6.4 0.00 0.00 0.00 76 1011.3
20260904131611 22 0 0.0 8.0 0.00 0.00 0.00 77 1011.7
20260904130054 21 0 0.0 12.9 0.00 0.00 0.00 79 1011.7
20260904124555 21 0 0.0 17.7 0.00 0.00 0.00 78 1011.8
20260904123106 21 273 0.0 14.5 0.00 0.00 0.00 78 1011.9
20260904121556 20 0 1.6 14.5 0.00 0.00 0.00 83 1011.8
20260904120100 20 267 0.0 11.3 0.00 0.00 0.00 83 1011.9
20260904114559 18 268 3.2 11.3 0.00 0.00 0.00 85 1011.8
20260904113100 18 0 0.0 9.7 0.00 0.00 0.00 88 1011.5
20260904111556 17 0 0.0 0.0 0.00 0.00 0.00 88 1011.5
20260904110052 18 0 0.0 0.0 0.00 0.00 0.00 87 1011.3
20260904104559 18 0 0.0 6.4 0.00 0.00 0.00 85 1011.3
20260904103056 18 0 0.0 3.2 0.00 0.00 0.00 85 1011.0
20260904101554 18 0 0.0 9.7 0.00 0.00 0.00 85 1010.9
20260904100108 18 0 0.0 11.3 0.00 0.00 0.00 84 1010.7
20260904094556 19 0 0.0 6.4 0.00 0.00 0.00 83 1010.7
20260904093057 18 0 0.0 6.4 0.00 0.00 0.00 84 1010.6
20260904091553 18 0 0.0 6.4 0.00 0.00 0.00 84 1010.6
20260904090059 18 265 0.0 6.4 0.00 0.00 0.00 84 1010.5
20260904084555 18 0 1.6 6.4 0.00 0.00 0.00 84 1010.5
20260904083053 19 0 0.0 4.8 0.00 0.00 0.00 82 1010.4
20260904081601 19 0 0.0 11.3 0.00 0.00 0.00 83 1010.3
20260904074555 17 0 0.0 0.0 0.00 0.00 0.00 88 1010.5
20260904073056 17 0 0.0 0.0 0.00 0.00 0.00 88 1010.5